TimeICT,TemperatureF,Dew PointF,Humidity,Sea Level PressureIn,VisibilityMPH,Wind Direction,Wind SpeedMPH,Gust SpeedMPH,PrecipitationIn,Events,Conditions,WindDirDegrees,DateUTC
12:00 AM,78.8,75.2,89,29.80,5.0,Variable,1.2,-,N/A,,Mostly Cloudy,0,2012-11-15 17:00:00
7:00 AM,78.8,75.2,89,29.83,5.6,Calm,Calm,-,N/A,,Mostly Cloudy,0,2012-11-16 00:00:00
7:30 AM,78.8,77.0,94,29.83,5.6,Calm,Calm,-,N/A,,Mostly Cloudy,0,2012-11-16 00:30:00
8:00 AM,80.6,77.0,89,29.83,6.2,Calm,Calm,-,N/A,,Scattered Clouds,0,2012-11-16 01:00:00
8:30 AM,82.4,77.0,84,29.86,6.2,Variable,1.2,-,N/A,,Scattered Clouds,0,2012-11-16 01:30:00
9:00 AM,82.4,77.0,84,29.86,6.2,Variable,3.5,-,N/A,,Scattered Clouds,0,2012-11-16 02:00:00
9:30 AM,84.2,75.2,74,29.86,6.2,West,4.6,-,N/A,,Scattered Clouds,280,2012-11-16 02:30:00
10:00 AM,86.0,75.2,70,29.86,6.2,NNW,5.8,-,N/A,,Scattered Clouds,330,2012-11-16 03:00:00
10:30 AM,86.0,73.4,66,29.86,6.2,Calm,Calm,-,N/A,,Mostly Cloudy,0,2012-11-16 03:30:00
11:00 AM,86.0,73.4,66,29.83,6.2,NW,5.8,-,N/A,,Mostly Cloudy,320,2012-11-16 04:00:00
11:30 AM,87.8,73.4,62,29.83,6.2,Variable,3.5,-,N/A,,Mostly Cloudy,0,2012-11-16 04:30:00
12:00 PM,87.8,73.4,62,29.80,6.2,Variable,3.5,-,N/A,,Mostly Cloudy,0,2012-11-16 05:00:00
12:30 PM,87.8,73.4,62,29.80,6.2,Variable,3.5,-,N/A,,Mostly Cloudy,0,2012-11-16 05:30:00
1:00 PM,89.6,73.4,59,29.77,6.2,Variable,3.5,-,N/A,,Mostly Cloudy,0,2012-11-16 06:00:00
1:30 PM,86.0,73.4,66,29.77,6.2,NNW,4.6,-,N/A,,Mostly Cloudy,330,2012-11-16 06:30:00
2:00 PM,87.8,73.4,62,29.74,6.2,NNW,4.6,-,N/A,,Mostly Cloudy,330,2012-11-16 07:00:00
2:30 PM,87.8,73.4,62,29.74,6.2,NNW,4.6,-,N/A,,Mostly Cloudy,340,2012-11-16 07:30:00
3:00 PM,87.8,73.4,62,29.74,6.2,Variable,2.3,-,N/A,,Mostly Cloudy,0,2012-11-16 08:00:00
3:30 PM,86.0,75.2,70,29.74,6.2,NNE,5.8,-,N/A,,Mostly Cloudy,20,2012-11-16 08:30:00
4:00 PM,84.2,75.2,74,29.74,6.2,North,3.5,-,N/A,,Mostly Cloudy,350,2012-11-16 09:00:00
4:30 PM,86.0,75.2,70,29.74,6.2,North,3.5,-,N/A,,Mostly Cloudy,350,2012-11-16 09:30:00
5:00 PM,84.2,77.0,79,29.74,6.2,Calm,Calm,-,N/A,,Mostly Cloudy,0,2012-11-16 10:00:00
5:30 PM,84.2,77.0,79,29.74,6.2,West,3.5,-,N/A,,Mostly Cloudy,270,2012-11-16 10:30:00
6:00 PM,84.2,77.0,79,29.77,6.2,WNW,5.8,-,N/A,,Mostly Cloudy,300,2012-11-16 11:00:00
6:30 PM,82.4,78.8,89,29.77,6.2,NW,3.5,-,N/A,,Mostly Cloudy,310,2012-11-16 11:30:00
7:00 PM,82.4,78.8,89,29.77,5.0,NW,3.5,-,N/A,,Mostly Cloudy,310,2012-11-16 12:00:00
7:30 PM,82.4,78.8,89,29.80,5.0,Calm,Calm,-,N/A,,Mostly Cloudy,0,2012-11-16 12:30:00
8:00 PM,82.4,78.8,89,29.83,5.0,NNE,13.8,-,N/A,,Mostly Cloudy,30,2012-11-16 13:00:00
8:30 PM,80.6,77.0,89,29.83,5.0,North,6.9,-,N/A,,Mostly Cloudy,350,2012-11-16 13:30:00
9:00 PM,80.6,77.0,89,29.83,5.0,North,9.2,-,N/A,,Mostly Cloudy,350,2012-11-16 14:00:00
9:30 PM,80.6,77.0,89,29.83,5.0,North,9.2,-,N/A,Thunderstorm,Thunderstorm,360,2012-11-16 14:30:00
10:00 PM,80.6,77.0,89,29.83,5.0,North,4.6,-,N/A,,Mostly Cloudy,350,2012-11-16 15:00:00
10:30 PM,78.8,77.0,94,29.83,5.0,NNE,2.3,-,N/A,,Mostly Cloudy,20,2012-11-16 15:30:00
11:00 PM,78.8,77.0,94,29.83,5.0,NE,3.5,-,N/A,,Mostly Cloudy,40,2012-11-16 16:00:00
11:30 PM,78.8,75.2,89,29.83,5.0,North,3.5,-,N/A,,Mostly Cloudy,10,2012-11-16 16:30:00